Showing default

HAWK-3C, 48948

Orbit data source: Space-Track

HAWK-3C, 48948 is a payload satellite owned by HawkEye 360 (US) in SSO that was launched on Wed, 30 Jun 2021 UTC via an FALCON 9 launch vehicle from the Air Force Eastern Test Range (AFETR). Payload-class satellites include a variety of spacecraft equipped with specific instruments for various scientific and technological missions. These include communications satellites like Starlink; space stations such as the ISS; scientific satellites like the Hubble; Earth observation satellites from companies like Planet Labs, Umbra, and HawkEye 360; GPS; miniature CubeSats for education and research; and military/defense satellites.

Not visible in the next 10 days
Identifier
48948, 2021-059BX
Orbit
SSO
Country
Flag of USUS
Related business
Manufacturer
UTIAS-SFL
Mission
Operational Commercial Sigint
Bus & Motor
DEFIANT, Unknown motor
Mass
31 kg wet, 30 kg dry
Launch date (UTC)
2021-06-30 (5 years ago)
Launch vehicle
FALCON 9
Launch site
Air Force Eastern Test Range (AFETR)
Object type
Payload
Rocket body
Debris
Shape & HBR
Box + 2 Pan, 1.0 m
Radar Cross Section
0.348 m², Medium (>0.1 m² and < 1m²)

Expand to show TLE details & history
Last TLE update: 11 hours ago

TLE from 11 hours ago
0 HAWK-3C
1 48948U 21059BX  26094.99644647  .00044582  00000-0  47440-3 0  9995
2 48948  97.6845 290.6534 0005242 228.8108 131.2699 15.63881830266395
Epoch: 2026-04-04T23:54Z
TLE epoch observation values (Epoch: 2026-04-04T23:54:52.975Z)
Latitude
-0°
Longitude
98.62447°
Altitude
381.935 km
Speed
7.679 km/s
True Right ascension
19h 22m 36s
True Declination
0° 00' 00"
Sunlit
Object was in daylight at epoch
Visualization orbit readout
Latitude
Unknown
Longitude
Unknown
Altitude
Unknown
Speed
Unknown
Apparent Right ascension
Unknown
Apparent Declination
Unknown
Sunlit
N/A
Visualization observer readout
Local Sidereal Time
17:00:41
Azimuth
Unknown
Elevation
Unknown
Doppler factor
Unknown
Orbital elements
Apogee altitude
376.916 km
Perigee altitude
369.837 km
Semi-major axis
6,751.513 km
Eccentricity
0.00052
Inclination
97.6845°
RAAN
290.6534°
Arg. of periapsis
228.8108°
True anomaly
131.31503°
Mean anomaly
131.2699°
Eccentric anomaly
131.29247°
Mean motion
3.91238 °/min
Orbital period
92.02 mins
BSTAR
0.0004744
Loading maneuver chart data...
Computing Atmospheric mass density...

Documentation

Showing up to 5 results
|